TimeAKST,TemperatureF,Dew PointF,Humidity,Sea Level PressureIn,VisibilityMPH,Wind Direction,Wind SpeedMPH,Gust SpeedMPH,PrecipitationIn,Events,Conditions,WindDirDegrees,DateUTC
12:53 AM,6.1,3.9,91,29.52,10.0,NNW,3.5,-,N/A,,Clear,330,2012-11-20 09:53:00
1:53 AM,5.0,3.0,92,29.55,10.0,Calm,Calm,-,N/A,,Clear,0,2012-11-20 10:53:00
3:53 AM,3.0,1.0,91,29.57,10.0,WNW,3.5,-,N/A,,Clear,300,2012-11-20 12:53:00
4:53 AM,-0.0,-4.0,83,29.58,10.0,Calm,Calm,-,N/A,,Clear,0,2012-11-20 13:53:00
5:53 AM,-2.0,-5.1,87,29.60,10.0,Calm,Calm,-,N/A,,Clear,0,2012-11-20 14:53:00
6:53 AM,-2.0,-5.1,87,29.61,10.0,Calm,Calm,-,N/A,,Clear,0,2012-11-20 15:53:00
7:53 AM,-2.9,-7.1,82,29.62,10.0,East,3.5,-,N/A,,Clear,80,2012-11-20 16:53:00
8:53 AM,-4.0,-8.0,83,29.63,10.0,Calm,Calm,-,N/A,,Clear,0,2012-11-20 17:53:00
9:53 AM,-6.0,-9.9,83,29.65,10.0,Calm,Calm,-,N/A,,Clear,0,2012-11-20 18:53:00
10:53 AM,-4.0,-7.1,87,29.66,10.0,Calm,Calm,-,N/A,,Clear,0,2012-11-20 19:53:00
11:53 AM,1.9,-0.9,88,29.67,10.0,Calm,Calm,-,N/A,,Clear,0,2012-11-20 20:53:00
12:53 PM,-0.0,-2.9,88,29.67,10.0,Calm,Calm,-,N/A,,Clear,0,2012-11-20 21:53:00
1:53 PM,-0.9,-4.0,87,29.68,10.0,Calm,Calm,-,N/A,,Clear,0,2012-11-20 22:53:00
2:53 PM,-0.0,-2.9,88,29.68,10.0,Calm,Calm,-,N/A,,Mostly Cloudy,0,2012-11-20 23:53:00
3:26 PM,-0.0,-2.9,88,29.66,10.0,Calm,Calm,-,N/A,,Overcast,0,2012-11-21 00:26:00
3:53 PM,1.9,-0.9,88,29.67,10.0,West,3.5,-,N/A,,Overcast,260,2012-11-21 00:53:00
4:53 PM,3.9,1.0,88,29.68,10.0,Calm,Calm,-,N/A,,Overcast,0,2012-11-21 01:53:00
5:53 PM,3.9,1.0,88,29.68,10.0,Calm,Calm,-,N/A,,Overcast,0,2012-11-21 02:53:00
6:53 PM,6.1,3.9,91,29.68,10.0,Calm,Calm,-,N/A,,Overcast,0,2012-11-21 03:53:00
7:53 PM,7.0,5.0,92,29.67,10.0,WNW,3.5,-,N/A,,Overcast,290,2012-11-21 04:53:00
8:53 PM,7.0,3.9,87,29.67,10.0,Calm,Calm,-,N/A,,Overcast,0,2012-11-21 05:53:00
9:53 PM,7.0,5.0,92,29.68,10.0,Calm,Calm,-,N/A,,Overcast,0,2012-11-21 06:53:00
10:53 PM,7.0,5.0,92,29.67,10.0,WNW,4.6,-,N/A,,Overcast,290,2012-11-21 07:53:00
11:53 PM,8.1,5.0,87,29.67,10.0,Calm,Calm,-,N/A,,Overcast,0,2012-11-21 08:53:00